TimeCDT,TemperatureF,Dew PointF,Humidity,Sea Level PressureIn,VisibilityMPH,Wind Direction,Wind SpeedMPH,Gust SpeedMPH,PrecipitationIn,Events,Conditions,WindDirDegrees,DateUTC
12:53 AM,78.1,77.0,96,29.95,10.0,Calm,Calm,-,N/A,,Clear,0,2013-09-07 05:53:00
1:53 AM,77.0,77.0,100,29.96,10.0,Calm,Calm,-,N/A,,Clear,0,2013-09-07 06:53:00
2:42 AM,77.0,75.2,94,29.95,10.0,South,9.2,-,N/A,,Mostly Cloudy,170,2013-09-07 07:42:00
2:53 AM,77.0,75.9,96,29.94,10.0,South,5.8,-,N/A,,Mostly Cloudy,190,2013-09-07 07:53:00
3:00 AM,77.0,75.2,94,29.94,10.0,South,3.5,-,0.00,Rain,Light Rain,180,2013-09-07 08:00:00
3:53 AM,75.9,75.9,100,29.94,10.0,WNW,3.5,-,0.11,,Mostly Cloudy,300,2013-09-07 08:53:00
4:53 AM,75.9,75.9,100,29.94,10.0,Calm,Calm,-,N/A,,Mostly Cloudy,0,2013-09-07 09:53:00
5:53 AM,75.9,75.9,100,29.94,10.0,Calm,Calm,-,0.01,,Mostly Cloudy,0,2013-09-07 10:53:00
6:53 AM,75.9,75.9,100,29.95,10.0,WNW,3.5,-,N/A,,Clear,300,2013-09-07 11:53:00
7:53 AM,75.9,75.9,100,29.96,9.0,North,4.6,-,N/A,,Partly Cloudy,350,2013-09-07 12:53:00
8:53 AM,77.0,77.0,100,29.96,10.0,North,5.8,-,N/A,,Clear,350,2013-09-07 13:53:00
9:44 AM,82.4,77.0,84,29.98,10.0,North,8.1,-,N/A,,Scattered Clouds,10,2013-09-07 14:44:00
9:53 AM,82.0,77.0,85,29.97,10.0,North,5.8,-,N/A,,Partly Cloudy,360,2013-09-07 14:53:00
10:53 AM,84.9,77.0,77,29.99,10.0,NNE,10.4,-,N/A,,Clear,20,2013-09-07 15:53:00
11:53 AM,87.1,77.0,72,29.99,10.0,East,6.9,-,N/A,,Overcast,100,2013-09-07 16:53:00
12:14 PM,89.6,75.2,62,29.99,10.0,East,8.1,-,N/A,,Scattered Clouds,100,2013-09-07 17:14:00
12:37 PM,87.8,77.0,70,29.98,10.0,ENE,9.2,-,N/A,,Mostly Cloudy,70,2013-09-07 17:37:00
12:53 PM,88.0,75.9,67,29.96,10.0,ENE,9.2,-,N/A,,Overcast,60,2013-09-07 17:53:00
1:02 PM,84.2,77.0,79,29.96,10.0,ENE,9.2,-,0.00,Rain,Light Rain,60,2013-09-07 18:02:00
1:53 PM,88.0,79.0,75,29.94,10.0,NNE,10.4,-,0.00,,Clear,20,2013-09-07 18:53:00
2:16 PM,80.6,75.2,84,29.95,3.0,East,19.6,26.5,0.00,Rain-Thunderstorm,Heavy Thunderstorms and Rain,100,2013-09-07 19:16:00
2:18 PM,78.8,75.2,89,29.95,1.8,East,13.8,26.5,0.04,Rain-Thunderstorm,Heavy Thunderstorms and Rain,80,2013-09-07 19:18:00
2:23 PM,77.0,75.2,94,29.95,0.8,North,8.1,23.0,0.43,Rain-Thunderstorm,Heavy Thunderstorms and Rain,10,2013-09-07 19:23:00
2:32 PM,75.2,73.4,94,29.94,2.0,Variable,3.5,-,0.77,Rain-Thunderstorm,Heavy Thunderstorms and Rain,0,2013-09-07 19:32:00
2:38 PM,77.0,75.2,94,29.94,8.0,South,4.6,-,0.80,Rain-Thunderstorm,Thunderstorms and Rain,180,2013-09-07 19:38:00
2:53 PM,80.1,77.0,90,29.93,10.0,Calm,Calm,-,0.81,Rain-Thunderstorm,Light Thunderstorms and Rain,0,2013-09-07 19:53:00
3:20 PM,80.6,80.6,100,29.93,10.0,Calm,Calm,-,0.01,,Mostly Cloudy,0,2013-09-07 20:20:00
3:27 PM,80.6,80.6,100,29.93,10.0,Calm,Calm,-,0.01,,Mostly Cloudy,0,2013-09-07 20:27:00
3:51 PM,80.6,80.6,100,29.92,10.0,Calm,Calm,-,0.01,,Scattered Clouds,0,2013-09-07 20:51:00
3:53 PM,81.0,81.0,100,29.92,10.0,Calm,Calm,-,0.01,,Scattered Clouds,0,2013-09-07 20:53:00
4:53 PM,81.0,81.0,100,29.91,10.0,Calm,Calm,-,N/A,,Clear,0,2013-09-07 21:53:00
5:53 PM,81.0,77.0,88,29.91,10.0,ENE,3.5,-,N/A,,Clear,70,2013-09-07 22:53:00
6:53 PM,82.0,78.1,88,29.89,10.0,Calm,Calm,-,N/A,,Clear,0,2013-09-07 23:53:00
7:53 PM,80.1,78.1,94,29.90,10.0,Calm,Calm,-,N/A,,Clear,0,2013-09-08 00:53:00
8:53 PM,79.0,75.9,90,29.90,10.0,ENE,3.5,-,N/A,,Clear,60,2013-09-08 01:53:00
9:53 PM,79.0,77.0,94,29.92,10.0,East,4.6,-,N/A,,Clear,80,2013-09-08 02:53:00
10:53 PM,79.0,77.0,94,29.93,10.0,East,4.6,-,N/A,,Clear,80,2013-09-08 03:53:00
11:53 PM,79.0,77.0,94,29.92,10.0,Calm,Calm,-,N/A,,Clear,0,2013-09-08 04:53:00